Location: Heisede
(52.2582°N, 9.8523°E)
Time: 23:47:39
(UTC+00:00)

Cosmos 2082 Rocket - Pass Details

Date: 13 January 2026
Orbit: 832 x 853 km, 71.0° (Epoch: 9 February)

Event Time Altitude Azimuth Distance (km) Brightness Sun altitude
Exits shadow 05:23:16 15° 332° (NNW) 2,138 3.9 -17.7°
Maximum altitude 05:28:03 75° 57° (ENE) 879 2.3 -17.0°
Drops below altitude 10° 05:33:44 10° 143° (SE) 2,469 5.4 -16.2°
Sets 05:36:11 0° 145° (SE) 3,404 6.2 -15.8°
